Location: ??
(35.4032°N, 139.3073°E)
Time: 10:59:07
(UTC+00:00)

CZ-3 Stage 3 - Pass Details

Date: 13 April 2024
Orbit: 460 x 34972 km, 30.5° (Epoch: 22 May)

Event Time Altitude Azimuth Distance (km) Brightness Sun altitude
Rises 17:54:33 0° 267° (W) 14,056 9.5 -26.4°
Enters shadow 18:02:26 - 268° (W) 11,550 9.0 -25.1°
Exits shadow 18:22:09 25° 262° (W) 3,807 6.5 -21.7°
Maximum altitude 18:28:34 59° 193° (SSW) 1,272 4.3 -20.5°
Drops below altitude 10° 18:32:25 10° 112° (ESE) 2,031 6.2 -19.8°
Sets 18:33:49 0° 107° (ESE) 2,684 7.0 -19.6°
